www.pogodaiklimat.ru

Погода и климат >> Архив погоды >> Россия >> Приморский край >> Партизанск


ПОГОДА в Партизанске

  • Прогноз погоды в Партизанске
  • Монитор погоды в Партизанске
  • Климат города

АРХИВ ПОГОДЫ в Партизанске

Время (UTC), дата Ветер
(напр.,м/с)
 
Видим.   Явления Облачность Т
(С)
Тd
(С)
f
(%)
Тe
(С)
Тes
(С)
Комфортность P
(гПа)
Po
(гПа)
Тmin
(С)
Tmax
(С)
R
(мм)
S
(см)
15 14.02 С 3 50 км ясно -6.4 -15.1 50 -12 -12 1028.2 1001.3
18 14.02 СЗ 1 50 км ясно -7.9 -15.5 54 -10 -10 1028.1 1001.1
21 14.02 С 3 50 км ясно -8.5 -15.4 57 -14 -14 1027.2 1000.2 -9.0 2
00 15.02 СВ 3 50 км 9/0
[Ac lent Ci fib]
-8.4 -15.0 59 -14 -12 1026.6 999.6 -11.9
03 15.02 Ю 2 50 км 8/0
[Ci fib]
-0.9 -13.4 38 -4 +2 1024.3 998.1
06 15.02 Ю 2 50 км 10/0
[Ci]
+0.8 -12.4 37 -2 +1 1021.5 995.5
09 15.02 Ю 3 50 км 3/1 600 м
[Sc Ac lent Ci fib]
-1.1 -6.6 66 -6 -6 1021.2 995.0 +1.8
12 15.02 З 1 50 км ясно -2.7 -6.7 74 -5 -5 1020.7 994.4
15 15.02 СЗ 1 50 км 9/9 1000 м
[Sc]
-3.2 -6.3 79 -5 -5 1019.3 993.0
18 15.02 штиль 0 50 км 10/8 1000 м
[Sc Ci fib]
-5.0 -7.7 81 -6 -6 1015.8 989.4
21 15.02 З 1 50 км 10/10 1000 м
[Sc]
-4.8 -7.8 79 -7 -7 1013.6 987.3 -5.5 1
00 16.02 Ю 1 50 км 10/8 1000 м
[Sc Ac As]
-3.3 -6.5 78 -5 -5 1012.4 986.2
03 16.02 штиль 0 50 км 10/6 600 м
[Sc Ac As]
+1.0 -4.9 65 0 +2 1010.1 984.4
06 16.02 Ю 2 20 км 10/0
[Ac As]
+4.3 -2.8 60 +2 +3 1007.9 982.6
09 16.02 Ю 1 10 км дым 10/0
[Ac As]
+2.0 -2.3 73 +1 +1 1008.9 983.3 +4.4
12 16.02 СЗ 5
{14}
10 км дым 10/5 1000 м
[Sc Ac As]
+4.0 -11.8 31 0 0 1009.3 983.9
15 16.02 С 6-13
{14}
20 км 10/10 1000 м
[Sc]
-0.8 -15.2 33 -7 -7 1011.8 985.9
18 16.02 С 6-12
{17}
20 км 10/4 1000 м
[Sc Ac trans Ci fib]
-4.0 -16.7 37 -11 -11 1013.0 986.7
21 16.02 С 5-10
{14}
20 км 3/0
[Ci fib]
-5.7 -16.8 41 -12 -12 1012.9 986.5 -5.6 1
00 17.02 С 6-11
{13}
50 км 3/3 1000 м
[Cu hum]
-5.1 -15.8 43 -12 -11 1013.5 987.1 -6.3
03 17.02 -13
{14}
50 км осадки на расстоянии н/о -4.4 -19.6 29 -12 -11 1012.6 986.3
06 17.02 СЗ 7-14
{15}
50 км 5/5 1000 м
[Cb cap]
-5.7 -20.4 30 -13 -13 1012.6 986.2
09 17.02 С 5-15
{19}
50 км 3/3 1000 м
[Cb cap]
-10.2 -24.1 31 -18 -18 1017.4 990.5 -4.0
12 17.02 СЗ 6-13
{19}
50 км 3/3 1000 м
[Sc]
-11.8 -27.0 27 -21 -21 1020.4 993.2
15 17.02 С 5
{19}
50 км 5/3 1000 м
[Sc Ci fib]
-12.6 -26.0 32 -21 -21 1021.6 994.3
18 17.02 Ю 1
{12}
50 км ясно -14.1 -25.3 38 -17 -17 1021.8 994.3
21 17.02 С 2 50 км ясно -14.3 -25.0 40 -19 -19 1021.4 993.9 -14.4 1
00 18.02 С 2 50 км ясно -12.2 -24.9 34 -17 -14 1021.4 994.1 -14.8
03 18.02 СЗ 6-12
{12}
50 км ясно -9.3 -25.5 25 -17 -14 1018.8 991.9
06 18.02 СЗ 5
{13}
50 км ясно -8.2 -25.1 24 -15 -13 1017.0 990.3
09 18.02 С 5
{12}
50 км ясно -10.2 -24.9 29 -18 -18 1019.2 992.1 -7.8
12 18.02 С 3 50 км ясно -12.7 -24.7 36 -19 -19 1021.0 993.7
15 18.02 С 4 50 км ясно -14.2 -24.9 40 -22 -22 1021.4 993.9
18 18.02 СВ 2 50 км ясно -16.1 -25.6 44 -21 -21 1021.4 993.7
21 18.02 С 5 50 км ясно -15.6 -26.9 37 -25 -25 1021.2 993.6 -17.6 1
00 19.02 С 3 50 км 8/0
[Ci fib]
-13.9 -26.8 33 -20 -18 1021.0 993.6
03 19.02 СВ 5 50 км 10/0
[Cs]
-10.5 -24.3 31 -18 -15 1018.5 991.5
06 19.02 Ю 1 50 км 10/0
[As trans]
-6.3 -24.4 22 -8 -6 1014.9 988.4
09 19.02 ЮЗ 2 50 км 10/0
[Ac As]
-8.2 -22.3 31 -12 -12 1013.6 986.9 -6.2
12 19.02 СЗ 2 4000 м снег 10/0 1000 м
[As op]
-9.5 -13.3 74 -14 -14 1011.6 984.9
15 19.02 С 1 4000 м слабый снег 10/0
[As op]
-10.0 -12.2 84 -12 -12 1009.1 982.4
18 19.02 С 1 4000 м слабый снег 10/0 600 м
[As op]
-9.7 -11.9 84 -12 -12 1007.0 980.3
21 19.02 СВ 3 4000 м снег 10/0
[As op]
-7.9 -9.8 86 -14 -14 1005.9 979.5 -10.0 5 11
00 20.02 С 6-10
{10}
4000 м слабый снег 10/0 300 м
[As op]
-7.2 -10.6 77 -15 -15 1007.4 981.0
03 20.02 С 8-12
{14}
50 км позёмок {снег, метель} 10/0
[As op Ci fib]
-5.5 -14.7 48 -14 -13 1007.9 981.7
06 20.02 С 10-16
{18}
50 км позёмок {снег, метель} 10/4 1000 м
[Sc Ci sp]
-7.5 -21.5 32 -17 -17 1010.6 984.1
09 20.02 С 9-13
{17}
50 км позёмок {метель} 10/0
[Ac lent Ci fib]
-9.9 -24.3 30 -20 -20 1015.1 988.2 -5.3 0.3
12 20.02 С 6
{15}
50 км {метель} 6/0
[Ac lent Ci fib]
-10.8 -24.6 31 -19 -19 1019.2 992.1
15 20.02 С 11-18
{21}
50 км позёмок {метель} ясно -11.1 -24.9 31 -22 -22 1020.4 993.3
18 20.02 СЗ 7-12
{18}
50 км позёмок {метель} ясно -12.1 -25.5 32 -22 -22 1023.3 995.9
21 20.02 С 9-13
{14}
50 км позёмок {метель} ясно -12.7 -25.0 35 -23 -23 1025.0 997.5 -12.7 1
00 21.02 СЗ 8-15
{16}
50 км позёмок {метель} ясно -10.7 -23.8 33 -20 -20 1026.1 998.9 -12.9
03 21.02 С 7-13
{19}
50 км позёмок {метель} ясно -5.3 -22.0 26 -13 -11 1025.9 999.1
06 21.02 С 10-16
{15}
50 км {метель} 3/0
[Ci fib]
-3.2 -21.6 23 -11 -11 1025.6 999.1

 

Местоположение метеостанции Партизанск (Приморский край, Россия): широта 43.15 долгота 133.00 высота над уровнем моря 208 м.

В архиве по умолчанию представлена погода в Партизанске за последнюю неделю. Архивные данные за месяц целиком и за предыдущие месяцы, начиная с января 2011 года, Вы можете получить, выбрав интересующий диапазон дат из раскрывающегося списка и нажав кнопку "Ввод!".

Внимание! Время в таблицах - всемирное. Для получения местного времени необходимо прибавить поправку, которая в Партизанске равна 10 ч.

Смотрите также архив погоды в соседних городах и на ближайших метеорологических станциях:

Погода в Находке (Приморский край, Россия) (42 км)
Погода в Лазо (Приморский край, Россия) (71 км)
Погода в Преображении (Приморский край, Россия) (78 км)
Погода в Владивостоке (Приморский край, Россия) (89 км)
Погода в Анучино (Приморский край, Россия) (91 км)
Погода в Тимирязевском (Приморский край, Россия) (120 км)
Погода в Чугуевке (Приморский край, Россия) (129 км)
Погода в Барабаше (Приморский край, Россия) (130 км)
Погода в Гамове (Приморский край, Россия) (160 км)
Погода в Хороль (Приморский край, Россия) (163 км)

Пояснения к столбцам:

Ветер - указаны скорость ветра в м/с - средняя за 10 мин, порывы в срок и между сроками (в фигурных скобках) и направление, откуда дует ветер: С - северный, СВ - северо-восточный, В - восточный, ЮВ - юго-восточный, Ю - южный, ЮЗ - юго-западный, З - западный, СЗ - северо-западный.
Видимость - горизонтальная дальность видимости в метрах или километрах. При видимости от 1 до 10 км при отсутствии осадков обычно наблюдается дымка, при ухудшении видимости до 1 км и менее - туман. В сухую погоду видимость может ухудшаться дымом, пылью или мглою.
Явления - указаны атмосферные явления, наблюдавшиеся в срок или в последний час перед сроком; фигурными скобками обозначены явления, наблюдавшиеся между сроками (за 1-3 часа до срока); квадратными скобками обозначены град или гололедные отложения с указанием их диаметра в мм.
Облачность - указаны через наклонную черту общая и нижняя облачность в баллах и высота нижней границы облаков в метрах; квадратными скобками обозначены формы облаков: Ci - перистые, Cs - перисто-слоистые, Cc - перисто-кучевые, Ac - высококучевые, As - высокослоистые, Sc - слоисто-кучевые, Ns - слоисто-дождевые, Cu - кучевые, Cb - кучево-дождевые. Подробнее классификацию облаков см. в Атласе облаков (PDF).
T - Температура воздуха - температура, измеренная на высоте 2 м над землей.
Td - Температура точки росы - температура, при понижении до которой содержащийся в воздухе водяной пар достигнет насыщения.
f - Относительная влажность воздуха - влажноcть воздуха, измеренная на высоте 2 м над землей.
Te - Эффективная температура - температура, которую ощущает одетый по сезону человек в тени. Характеристика душности погоды. При расчете учитывается влияние влажности воздуха и скорости ветра на теплоощущения человека.
Tes - Эффективная температура на солнце - температура, которую ощущает человек, с поправкой на солнечный нагрев. Характеристика знойности погоды. Зависит от высоты солнца над горизонтом, облачности и скорости ветра. Ночью, в пасмурную погоду, а также при ветре 12 м/с и более поправка равна нулю.
P - Атмосферное давление - приведенное к уровню моря атмосферное давление.
Po - Атмосферное давление - измеренное на уровне метеостанции атмосферное давление.
Tmin - Минимальная температура - минимум температуры воздуха на высоте 2 м над землей.
Tmax - Максимальная температура - максимум температуры воздуха на высоте 2 м над землей.
R - Количество осадков - Количество выпавших осадков, мм. При наведении курсора мыши на число - период времени, за который выпало указанное количество осадков.
S - Снежный покров - Высота снежного покрова, см. При наведении курсора мыши на число - состояние снежного покрова и степень покрытия местности в баллах.